Retour au catalogue

DELTA 1 DEB

ActifSSO
NORAD 7082·DEBRIS·🇺🇸 United States

Lancé Nov 6, 1973 depuis Vandenberg Space Force Base

Loading…

Prochains Passages (prochaines 24 heures)

TLE

FraisSource: Space-Track

Époque: Sep 14, 2026, 02:43 UTC

1 07082U 73086CA  26257.11357642  .00000382  00000-0  23979-2 0  9997
2 07082 101.7815 133.8779 0028474 104.6174  52.7451 12.61981293419985

Suivez DELTA 1 DEB en temps réel avec AllMySat

Download on the App Store